{"data":{"norad_id":54672,"epoch":"2026-05-25T01:05:31.746048Z","epoch_age_seconds":70550,"freshness":"FRESH","line1":"1 54672U 22166AG  26145.04550632 -.00000001  00000+0 -33943-4 0  9992","line2":"2 54672  87.9263 248.5694 0002504  98.2760 261.8658 13.21823880168492","mean_motion":13.2182388,"eccentricity":0.0002504,"inclination_deg":87.9263,"raan_deg":248.5694,"arg_perigee_deg":98.276,"mean_anomaly_deg":261.8658,"bstar":-3.3943e-5,"rev_number":16849,"period_min":108.94038319235,"perigee_km":1175.8694503768,"apogee_km":1179.6534443192,"semimajor_km":7555.898447348,"source":"CELESTRAK","updated_at":"2026-05-25T13:38:22.636480Z"}}